Miscellaneous Local Product
Issued by NWS North Platte, NE

Home | Current Version | Previous Version | Text Only | Print | Product List | Glossary Off
Versions: 1 2 3 4 5 6 7 8 9 10 11 12 13 14 15 16 17 18 19 20 21 22 23 24 25 26 27 28 29 30 31 32 33 34 35 36 37 38 39 40 41 42 43 44 45 46 47 48 49 50

000
AXUS43 KLBF 281610
MISLBF


WESTERN AND NORTH CENTRAL NEBRASKA HOURLY WEATHER ROUNDUP
NATIONAL WEATHER SERVICE NORTH PLATTE NE
1100 AM CDT TUE APR 28 2015

***STATIONS NOT REPORTING VARIABLES SUCH AS SKY/WEATHER OR
PRESSURE ARE PROVIDED BY THE NEBRASKA DEPARTMENT OF
ROADS...RAWS...AND APRS NETWORKS...AND ARE NOT UNDER
NATIONAL WEATHER SERVICE QUALITY CONTROL***

...OBSERVATIONS IN AND NEAR THE EASTERN PANHANDLE OF NEBRASKA...

CITY           SKY/WX    TMP DP  RH WIND       PRES   REMARKS
PINE RIDGE     MOSUNNY   51  38  60 CALM      30.32F
CHADRON        PTSUNNY   52  42  69 S5        30.32F
ALLIANCE       CLOUDY    48  42  80 NW6       30.33S
SIDNEY         CLOUDY    47  42  83 CALM      30.35F
WHITECLAY        N/A     49  38  68 CALM        N/A
$$

...OBSERVATIONS IN NORTH CENTRAL NEBRASKA...

CITY           SKY/WX    TMP DP  RH WIND       PRES   REMARKS
VALENTINE      CLOUDY    52  38  58 NW10      30.33S
THEDFORD       CLOUDY    53  41  64 N8        30.33F
AINSWORTH      PTSUNNY   53  39  58 N13       30.32S
O`NEILL        MOSUNNY   56  45  66 N14       30.29F
ORD            SUNNY     57  42  57 N17       30.28S
BROKEN BOW     PTSUNNY   56  41  57 N13G22    30.29F
BROWNLEE         N/A     53  39  58 SE8         N/A
VALENTINE NWR    N/A     48  41  76 N8          N/A
SPRINGVIEW       N/A     54  40  59 N8          N/A
BREWSTER         N/A     56  39  52 E16         N/A
ROSE             N/A     54  41  62 W13         N/A
NEWPORT          N/A     53  39  59 SW10        N/A
SARGENT          N/A     55  44  66 N3G12       N/A
COMSTOCK         N/A     57  46  65 S14         N/A
EWING            N/A     56  46  68 N10G17      N/A
$$

...OBSERVATIONS IN SOUTHWEST NEBRASKA AND FAR NORTHEAST COLORADO...

CITY           SKY/WX    TMP DP  RH WIND       PRES   REMARKS
WRAY           FAIR      53  40  62 NE5       30.35F
HOLYOKE        FAIR      54  43  66 NW5       30.35S
IMPERIAL       MOSUNNY   54  40  59 N8        30.33F
OGALLALA       MOSUNNY   53  40  61 NE6       30.34S
NORTH PLATTE   MOSUNNY   56  39  53 N7        30.32F
MCCOOK         SUNNY     59  42  53 N13       30.30F
LEXINGTON      SUNNY     58  45  62 N10       30.29F
PAXTON           N/A     54  43  66 N6          N/A
SUTHERLAND       N/A     50  37  62 N12         N/A
BRADY            N/A     57  43  59 CALM        N/A
GOTHENBURG       N/A     53  40  62 N7          N/A
CALLAWAY         N/A     52  45  78 N9          N/A
$$

...NORTH PLATTE AREA...

CITY           SKY/WX    TMP DP  RH WIND       PRES   REMARKS
AIRPORT        MOSUNNY   56  39  53 N7        30.32F
DOWNTOWN         N/A     55  41  59 NE3         N/A
$$

...SOME WEATHER OBSERVATIONS FROM AROUND THE REGION...

CITY           SKY/WX    TMP DP  RH WIND       PRES   REMARKS
DENVER         MOSUNNY   49  34  56 NW3       30.34F
LARAMIE        MOSUNNY   43  31  62 VRB3      30.31S
CHEYENNE       MOSUNNY   47  36  65 S10       30.34S
SCOTTSBLUFF    CLOUDY    49  43  80 SW5       30.34F
RAPID CITY     SUNNY     50  39  66 S5        30.32F
PIERRE         CLOUDY    51  37  58 N13       30.31F
WINNER         CLOUDY    54  37  52 N14       30.32S
SIOUX FALLS    CLOUDY    56  44  64 N14       30.23S
OMAHA          PTSUNNY   63  38  39 VRB6      30.20F
GRAND ISLAND   SUNNY     56  44  64 N12       30.27F
KANSAS CITY    PTSUNNY   64  41  42 N8        30.17F
WICHITA        PTSUNNY   61  41  47 N7        30.18F
HAYS           MOSUNNY   61  37  41 N10       30.26R
LIBERAL        SUNNY     57  43  58 N16       30.29R
GOODLAND       MOSUNNY   54  42  64 N12       30.33F
$$



USA.gov is the U.S. government's official web portal to all federal, state and local government web resources and services.